Temp
15 15 15 15 15 15 15 15 15 15 15 15 15 15 14 14 14 15 15 15 16 16 15 15 15 14 13 13 14 14 14 14 14 14 14 14 14 14 14 14 15 15 15 15 15 15 15 15 15 15 15 15 15 15 15 15 16 16 17 17 17 17 17 17 16 16 16 16 16 16 17 17 17 18
15 15 15 15 15 15 15 15 15 15 15 15 15 15 15 14 14 14 14 15 15 15 15 15 15 14 13 13 13 13 13 14 14 14 14 14 14 14 14 15 15 15 15 15 15 15 15 15 15 15 15 15 15 15 15 15 15 16 16 17 17 17 17 17 17 17 16 16 16 16 16 16 17 17
15 15 15 15 15 15 15 15 15 15 15 15 15 15 15 15 14 14 14 14 15 15 14 14 14 14 13 13 13 13 14 14 14 14 14 14 14 14 14 15 15 15 15 14 14 14 14 15 15 15 15 15 15 15 15 15 15 15 16 16 17 17 17 17 17 17 17 16 16 16 16 16 17 17
14 15 15 15 15 15 15 15 15 15 15 15 15 15 14 14 14 14 14 14 15 15 14 14 14 13 13 13 13 14 14 14 14 14 14 14 14 14 14 14 15 15 15 15 14 14 14 14 15 15 15 15 15 15 15 15 15 15 15 16 16 16 17 17 17 17 17 17 17 16 16 17 17 17
14 15 15 15 15 15 15 15 15 15 15 14 14 14 14 14 13 13 13 14 14 15 15 14 14 13 13 13 13 13 13 13 13 14 14 14 14 15 15 14 14 14 15 15 15 15 15 14 15 15 15 15 15 15 15 15 15 15 15 15 15 15 16 16 16 17 17 17 17 17 17 17 17 17
15 15 15 15 15 15 15 15 15 15 14 14 14 14 14 14 14 13 13 13 14 14 14 15 14 14 13 13 13 13 13 13 13 14 14 14 14 14 14 14 14 14 14 15 15 15 15 15 15 14 14 14 14 15 15 15 15 15 15 15 15 15 15 15 16 16 16 17 17 17 17 17 17 17
15 15 15 15 15 15 15 15 15 15 14 14 14 14 14 14 14 14 13 13 13 14 14 14 14 14 14 14 14 14 14 13 13 13 14 14 13 13 13 13 13 13 14 14 15 15 15 15 14 14 14 14 14 15 15 15 15 15 15 15 15 15 15 15 15 16 16 16 16 17 17 17 17 17
15 15 15 15 15 14 14 15 15 15 14 14 14 14 14 14 14 14 14 13 13 13 14 14 14 14 14 14 14 14 14 13 13 13 13 13 13 13 13 12 12 12 12 13 14 14 14 14 14 14 14 14 14 15 15 15 15 15 15 15 15 15 15 15 15 15 15 16 17 17 16 17 17 17
15 15 15 15 15 14 14 15 14 14 14 14 14 14 14 14 14 14 14 14 13 13 13 14 14 14 13 13 14 14 13 12 12 13 13 13 13 13 12 12 12 12 12 12 12 13 13 14 14 15 15 15 15 15 15 15 15 15 15 15 15 15 15 15 15 15 15 15 16 17 16 16 17 17
15 15 15 15 14 14 14 14 14 14 14 14 14 14 14 14 14 14 14 13 13 12 13 13 13 13 13 13 13 13 12 12 12 12 12 12 12 12 12 12 12 12 12 12 12 12 12 12 13 14 14 15 15 15 16 16 16 16 15 15 15 15 15 15 15 15 15 15 16 16 17 16 16 17
15 15 15 15 15 14 14 14 14 14 14 14 14 14 14 14 15 14 14 13 13 12 13 13 13 13 13 12 12 12 12 12 12 12 12 12 12 12 12 12 12 12 12 12 12 12 12 12 12 12 12 13 13 14 15 16 15 15 15 15 15 15 15 15 15 15 15 15 15 16 16 16 16 16
14 15 15 15 15 14 14 14 14 14 14 14 14 14 14 14 14 14 14 14 13 13 13 13 13 13 13 12 12 12 12 12 12 12 12 12 12 12 12 12 12 12 12 12 12 12 12 12 12 12 12 11 11 12 14 15 15 14 14 14 13 13 13 13 14 14 15 14 14 15 16 16 16 16
14 15 15 15 15 15 15 15 15 14 14 14 14 14 14 14 14 14 14 14 13 13 13 13 12 12 12 12 12 12 12 12 12 12 12 12 12 12 12 12 12 12 12 12 12 12 12 12 12 12 12 12 11 12 13 13 13 13 13 12 12 12 12 12 12 13 14 14 14 14 15 16 16 16
15 15 15 15 15 15 15 15 15 15 14 14 14 14 14 14 14 14 13 13 13 13 13 13 12 12 12 12 12 12 13 12 12 11 11 11 12 12 12 12 12 12 12 11 11 12 12 12 12 12 12 12 12 12 12 12 11 12 12 12 12 11 11 11 12 12 13 13 14 13 14 15 15 16
15 15 15 15 14 14 14 15 15 15 14 14 14 14 14 13 13 13 13 13 12 12 12 13 13 12 12 12 12 12 12 12 12 11 11 11 12 12 11 11 12 12 12 11 11 11 11 11 11 11 11 12 12 12 11 11 11 11 11 11 11 11 10 10 11 11 12 12 13 13 13 14 15 15
15 15 15 15 15 14 14 14 14 14 14 14 14 14 14 13 13 13 12 12 12 12 12 12 12 12 12 13 13 12 12 12 12 11 11 11 12 11 11 11 11 11 11 11 11 11 11 11 11 11 11 11 11 12 12 12 11 11 11 11 10 10 10 10 10 10 10 11 12 12 13 13 14 15
15 15 15 15 15 14 14 14 14 14 14 14 14 14 14 14 13 13 12 12 12 12 12 12 12 12 12 12 12 12 12 11 11 11 11 11 11 11 10 10 10 10 10 10 10 10 10 11 11 11 11 11 12 12 12 11 11 11 11 11 10 10 10 10 10 10 10 10 11 11 12 13 14 14
14 15 15 15 15 14 14 14 14 14 14 14 14 14 14 13 13 12 12 12 12 12 12 12 12 12 12 12 12 12 11 11 11 10 10 11 10 10 10 9 9 9 9 9 9 10 10 11 11 11 11 12 12 12 12 11 11 11 11 10 10 10 10 10 10 10 10 10 10 11 12 12 13 14
15 15 15 15 15 14 14 14 14 14 14 14 14 13 13 13 12 12 12 12 12 12 12 12 12 12 12 11 11 11 11 10 10 10 10 10 10 10 10 9 9 9 10 10 10 10 11 11 12 12 12 12 12 12 11 11 11 11 10 10 10 10 10 10 10 10 10 10 10 10 11 12 13 14
15 14 14 14 14 14 14 14 14 14 14 13 13 13 13 12 12 12 12 12 12 12 12 11 12 12 12 11 11 11 10 10 10 10 10 10 10 10 9 9 10 10 10 10 10 11 11 11 11 11 12 12 11 11 11 11 11 11 10 10 10 11 11 11 10 10 9 10 10 10 11 12 13 14
14 14 14 14 14 14 13 13 14 14 13 13 12 12 12 12 12 12 12 12 12 12 12 12 12 11 11 11 11 11 10 10 10 10 10 10 9 9 9 10 10 10 10 10 10 10 11 11 11 11 11 11 11 11 11 11 11 10 10 11 11 12 11 11 10 10 10 10 10 10 11 12 13 14
15 14 14 14 14 14 13 13 13 13 13 12 12 12 12 12 12 12 11 11 11 10 11 11 11 11 11 10 10 10 10 10 10 9 9 9 9 9 10 10 10 10 10 10 10 10 11 11 10 10 10 10 11 11 11 11 11 10 10 11 11 11 11 11 10 10 10 10 10 10 11 12 13 13
14 14 14 14 14 14 13 13 13 13 12 12 12 12 12 12 12 11 11 10 10 10 10 10 10 10 10 10 10 10 10 9 9 9 9 9 9 9 10 10 10 10 10 10 10 10 10 10 10 10 10 10 11 11 10 10 10 10 10 10 11 11 11 11 11 10 10 10 10 10 11 12 13 13
14 14 14 14 13 13 13 13 12 12 12 12 12 12 12 12 12 12 11 10 10 10 9 9 9 9 9 10 10 10 10 9 9 9 9 9 9 9 9 9 9 9 9 10 10 10 9 10 10 10 10 9 10 10 10 10 10 10 10 11 11 12 12 12 11 11 11 11 11 11 11 12 12 12
14 14 14 13 13 13 13 12 12 12 11 12 11 12 12 12 12 12 11 10 10 10 9 9 9 9 10 10 10 10 10 9 9 9 9 9 9 9 9 9 9 9 9 10 10 10 9 10 10 10 10 9 9 9 9 9 10 10 11 11 12 12 12 12 12 12 11 11 11 12 12 12 12 12
14 14 13 12 12 13 12 12 12 11 11 11 11 12 12 12 12 12 11 11 10 9 9 9 9 10 10 10 9 9 9 9 9 9 9 8 9 9 9 9 8 9 10 11 11 10 10 10 10 10 9 9 9 9 9 9 10 10 11 12 12 12 12 12 12 12 12 12 12 13 13 12 12 12
14 13 13 12 13 13 12 12 11 11 11 11 11 12 12 12 11 11 11 11 10 8 8 9 9 9 9 9 9 9 9 8 8 8 8 9 9 9 9 9 9 9 10 11 11 10 10 9 9 9 9 8 8 9 9 9 10 10 11 12 12 12 12 12 12 12 12 12 12 13 13 12 12 13
12 12 12 12 12 12 12 11 11 11 11 11 11 12 12 11 11 11 11 10 8 8 8 9 9 9 8 8 8 8 8 8 8 8 8 8 8 8 8 9 9 10 10 10 10 10 9 9 9 9 8 8 8 9 9 9 10 11 11 12 13 13 13 12 12 12 12 12 12 13 13 13 13 13
12 12 12 12 12 12 11 11 11 11 11 11 12 12 11 11 11 11 9 8 8 8 8 8 8 8 8 8 8 8 8 8 8 8 8 7 7 8 8 8 9 10 10 10 10 10 9 9 9 8 8 8 8 9 9 9 10 11 12 12 13 13 13 13 13 13 13 12 12 13 14 13 13 13
12 12 12 12 12 12 11 11 11 11 11 12 12 11 11 11 10 9 8 8 8 8 8 8 8 8 7 7 8 8 8 8 8 7 7 6 7 8 8 8 9 10 10 10 10 10 9 9 9 8 8 8 8 9 9 10 11 12 12 12 12 13 13 13 13 13 13 13 13 13 14 14 14 13
12 12 12 12 12 11 11 11 11 11 12 11 11 11 11 10 9 9 8 8 8 8 8 7 7 7 7 7 7 7 7 7 7 7 6 6 7 7 7 8 8 9 9 10 10 10 9 9 9 9 8 8 9 9 10 10 11 11 12 12 12 12 13 14 14 14 14 13 13 13 14 14 14 14
11 11 11 11 11 10 11 11 11 11 10 9 9 9 9 9 8 8 8 8 7 7 7 7 7 7 7 7 7 7 7 7 7 6 6 6 7 7 7 7 7 7 8 9 10 10 10 10 9 9 9 8 9 9 10 10 11 11 11 12 12 12 13 14 14 14 14 13 13 13 13 14 14 14
11 10 10 10 10 10 10 10 10 10 10 10 9 8 8 8 8 8 7 7 7 7 7 7 7 7 6 6 7 7 7 7 7 6 6 6 7 7 7 7 8 8 8 9 10 10 10 10 10 10 9 9 9 9 9 10 10 10 10 11 11 12 13 13 14 14 14 14 13 13 13 14 15 15
11 10 11 11 12 12 11 11 10 10 11 11 10 9 8 8 8 7 7 7 7 7 7 7 7 6 6 6 7 7 7 7 7 7 7 7 6 7 7 8 8 8 8 9 10 10 9 10 10 10 10 10 9 9 9 9 9 9 10 10 11 12 13 14 14 15 14 14 14 14 14 14 14 15
11 11 11 12 12 12 11 11 11 11 10 10 9 9 9 8 8 7 7 7 7 7 7 6 6 6 6 6 6 7 6 6 7 7 7 7 7 7 8 8 8 8 8 9 10 10 9 9 9 9 9 10 9 9 9 9 9 9 9 10 11 12 13 14 14 14 14 14 14 14 14 14 14 15
11 11 11 11 11 11 11 11 10 10 10 9 9 9 9 8 8 7 7 7 7 7 6 6 6 6 6 6 6 7 6 6 7 7 7 7 7 7 8 8 8 8 8 9 9 10 9 8 8 8 8 8 8 8 9 9 9 9 9 9 10 11 12 13 14 14 14 15 14 14 14 15 15 15
10 10 10 10 11 10 10 10 10 9 9 9 8 8 8 8 7 7 7 7 7 6 6 6 6 6 6 6 6 6 6 7 7 7 7 7 7 8 8 8 8 8 9 8 9 9 9 8 8 8 8 8 8 8 8 9 9 9 9 9 10 11 11 12 13 14 14 14 14 14 14 15 15 15
10 11 11 10 10 10 9 9 9 8 8 8 8 7 7 7 7 6 6 6 6 6 6 6 6 6 6 6 6 6 7 7 7 7 7 7 7 7 7 7 7 8 9 8 9 9 9 8 8 8 8 8 8 8 8 8 8 8 9 9 9 10 11 12 13 13 14 14 14 14 14 14 15 15
10 10 10 10 10 9 8 8 8 8 7 7 7 7 7 7 6 6 6 6 6 6 6 6 6 6 6 6 6 6 7 7 7 7 7 7 7 7 7 7 7 7 8 8 8 9 9 8 8 8 8 8 8 8 8 8 8 8 8 9 9 9 11 11 12 13 13 13 14 14 14 14 14 14
9 9 9 9 9 8 8 7 7 7 7 7 6 6 6 6 6 6 6 6 6 6 6 6 6 6 6 6 6 6 6 7 7 7 7 7 7 7 7 7 7 7 7 8 9 9 9 9 8 8 8 8 8 9 8 8 8 8 8 8 8 9 10 11 12 13 14 14 14 14 14 14 15 14
9 9 8 8 8 7 7 7 7 6 6 6 6 6 6 6 6 6 6 6 7 7 6 6 6 6 6 6 6 6 6 6 7 7 7 7 7 7 7 7 7 7 7 8 8 9 9 9 9 9 9 9 9 9 9 8 8 8 8 8 8 9 9 10 11 12 14 14 14 14 15 15 15 15
8 8 8 7 7 7 7 6 6 6 6 5 5 5 5 5 5 6 6 6 6 6 6 6 6 6 6 6 6 6 6 6 6 6 6 6 7 7 7 7 8 8 7 7 8 8 9 9 9 9 9 9 9 9 9 8 8 8 8 8 8 9 9 9 9 11 13 14 14 14 15 15 15 15
8 7 7 7 6 6 6 5 5 5 5 5 5 5 5 5 5 5 6 6 5 5 5 5 6 6 6 6 6 6 6 6 6 6 6 6 6 7 7 7 7 7 7 7 8 8 9 9 9 9 9 9 9 9 9 8 8 8 8 8 8 8 9 9 10 11 13 14 14 14 14 14 15 15
7 7 7 7 7 6 5 5 5 5 5 5 5 5 5 5 5 5 5 5 5 5 5 5 5 5 5 6 6 6 6 6 6 6 6 6 6 7 7 7 7 7 7 7 8 8 9 9 9 9 9 9 9 9 9 8 8 8 8 8 8 8 8 9 10 10 12 13 13 13 14 14 14 15
7 7 7 7 7 6 5 5 4 4 4 4 4 4 4 5 5 5 5 5 5 5 5 5 5 5 6 6 6 6 6 6 6 6 6 6 6 7 7 7 7 7 7 7 8 8 8 9 9 9 9 9 9 9 9 9 9 8 8 8 8 8 8 8 8 9 10 11 12 12 13 13 14 14
Height
1563 1563 1563 1562 1562 1562 1562 1562 1561 1561 1561 1561 1562 1561 1561 1561 1560 1559 1557 1556 1556 1556 1555 1554 1554 1552 1551 1549 1549 1548 1547 1547 1546 1546 1545 1544 1543 1542 1541 1540 1540 1539 1538 1538 1537 1537 1536 1535 1535 1534 1533 1533 1532 1531 1530 1530 1529 1529 1529 1529 1529 1529 1530 1531 1532 1533 1533 1534 1535 1536 1537 1538 1539 1540
1562 1562 1562 1562 1561 1561 1561 1560 1560 1560 1560 1560 1560 1560 1560 1559 1559 1558 1556 1553 1553 1553 1552 1552 1551 1551 1549 1547 1546 1545 1544 1544 1543 1543 1542 1541 1540 1539 1538 1537 1536 1536 1535 1534 1534 1533 1533 1532 1532 1531 1530 1530 1529 1528 1527 1526 1526 1525 1525 1525 1525 1525 1525 1526 1526 1527 1528 1528 1529 1530 1532 1533 1534 1536
1561 1561 1561 1561 1560 1560 1560 1559 1559 1559 1559 1559 1559 1559 1558 1558 1557 1557 1555 1552 1550 1550 1550 1549 1548 1548 1546 1545 1544 1543 1542 1541 1540 1539 1539 1538 1537 1536 1535 1533 1533 1532 1531 1531 1530 1530 1529 1529 1528 1528 1527 1526 1526 1525 1524 1523 1522 1522 1521 1521 1520 1520 1520 1521 1521 1521 1522 1523 1524 1525 1526 1527 1529 1531
1560 1559 1559 1559 1559 1558 1558 1558 1558 1557 1557 1557 1557 1557 1556 1556 1555 1555 1554 1552 1549 1548 1548 1546 1545 1545 1544 1542 1541 1540 1539 1538 1537 1536 1535 1534 1533 1532 1531 1530 1529 1528 1527 1527 1526 1526 1525 1525 1524 1524 1523 1523 1522 1521 1521 1520 1519 1518 1517 1517 1516 1516 1515 1515 1516 1516 1516 1517 1518 1519 1520 1521 1523 1525
1558 1558 1558 1557 1557 1557 1556 1556 1556 1555 1555 1555 1555 1554 1554 1553 1553 1552 1551 1550 1547 1546 1545 1544 1542 1542 1541 1539 1538 1537 1536 1535 1534 1533 1532 1531 1530 1528 1527 1526 1525 1524 1523 1523 1522 1522 1521 1521 1520 1520 1519 1519 1518 1517 1517 1516 1515 1514 1513 1513 1512 1511 1511 1510 1510 1510 1511 1511 1512 1513 1515 1516 1517 1519
1556 1556 1556 1555 1555 1555 1554 1554 1554 1553 1553 1553 1552 1552 1551 1551 1550 1550 1548 1547 1545 1544 1543 1542 1540 1539 1538 1536 1535 1534 1533 1532 1531 1530 1529 1528 1526 1525 1524 1522 1521 1521 1519 1519 1518 1517 1517 1516 1516 1516 1515 1515 1514 1513 1512 1511 1511 1510 1509 1509 1508 1507 1506 1506 1505 1505 1505 1506 1506 1507 1508 1510 1511 1513
1554 1554 1553 1553 1553 1553 1552 1552 1551 1551 1550 1550 1549 1549 1548 1548 1547 1546 1546 1544 1542 1541 1540 1539 1538 1537 1535 1534 1532 1532 1530 1529 1528 1526 1525 1524 1523 1522 1520 1519 1518 1517 1516 1515 1514 1513 1512 1512 1511 1510 1510 1510 1509 1508 1507 1506 1505 1505 1504 1504 1503 1503 1502 1501 1500 1500 1499 1500 1500 1501 1502 1504 1505 1507
1552 1551 1551 1551 1551 1551 1550 1549 1549 1549 1548 1548 1547 1546 1545 1545 1544 1543 1542 1541 1540 1538 1537 1536 1535 1534 1533 1531 1530 1529 1527 1526 1525 1523 1522 1521 1520 1518 1517 1516 1515 1514 1512 1511 1510 1509 1508 1507 1506 1506 1505 1504 1504 1503 1502 1501 1500 1499 1499 1498 1498 1497 1497 1496 1495 1494 1493 1493 1494 1495 1495 1497 1499 1501
1550 1549 1549 1549 1549 1548 1548 1547 1547 1547 1546 1545 1544 1543 1543 1542 1541 1540 1539 1538 1537 1535 1534 1532 1531 1531 1529 1528 1527 1526 1524 1523 1522 1520 1519 1518 1517 1515 1515 1514 1513 1512 1510 1509 1507 1505 1504 1502 1501 1500 1499 1498 1498 1497 1496 1495 1494 1493 1493 1492 1491 1491 1490 1489 1489 1488 1487 1487 1487 1488 1489 1490 1491 1494
1547 1547 1547 1547 1546 1546 1546 1546 1545 1545 1544 1543 1542 1541 1540 1539 1538 1537 1536 1535 1534 1532 1530 1528 1528 1527 1526 1525 1524 1523 1522 1520 1519 1518 1516 1515 1514 1513 1512 1511 1510 1509 1508 1506 1505 1502 1500 1498 1496 1494 1492 1491 1490 1490 1489 1489 1488 1487 1486 1485 1484 1483 1482 1482 1482 1481 1480 1480 1480 1480 1481 1483 1484 1486
1545 1545 1545 1545 1544 1544 1544 1543 1543 1542 1541 1540 1539 1538 1537 1536 1535 1534 1533 1532 1531 1529 1527 1525 1525 1524 1523 1522 1521 1520 1519 1517 1516 1515 1514 1512 1512 1510 1509 1507 1506 1505 1504 1502 1501 1500 1497 1495 1492 1490 1487 1485 1484 1483 1482 1481 1480 1479 1478 1477 1476 1475 1474 1474 1474 1473 1473 1472 1472 1473 1474 1476 1477 1479
1543 1543 1543 1543 1543 1542 1542 1541 1541 1540 1539 1538 1536 1536 1535 1534 1532 1531 1530 1529 1528 1526 1525 1523 1522 1520 1519 1519 1518 1516 1516 1514 1513 1513 1511 1509 1508 1507 1505 1504 1502 1501 1499 1498 1497 1496 1494 1491 1489 1486 1483 1481 1479 1477 1475 1474 1472 1471 1470 1469 1468 1467 1466 1465 1465 1465 1465 1465 1465 1465 1466 1468 1470 1472
1540 1540 1540 1540 1540 1540 1539 1539 1538 1537 1537 1535 1534 1533 1532 1531 1529 1528 1527 1526 1524 1523 1522 1520 1519 1517 1516 1515 1514 1513 1513 1511 1510 1509 1508 1506 1505 1503 1501 1500 1499 1498 1496 1494 1492 1491 1490 1487 1485 1483 1480 1478 1476 1472 1469 1468 1466 1465 1464 1463 1461 1460 1458 1457 1456 1456 1456 1456 1457 1457 1458 1460 1462 1464
1536 1536 1537 1537 1537 1536 1536 1536 1535 1534 1534 1533 1531 1530 1529 1528 1527 1525 1524 1522 1521 1520 1518 1517 1516 1514 1513 1512 1512 1510 1509 1508 1507 1506 1505 1503 1501 1500 1497 1495 1495 1495 1493 1490 1487 1486 1486 1483 1479 1476 1474 1472 1471 1467 1464 1463 1462 1460 1458 1457 1455 1453 1451 1449 1448 1448 1448 1448 1448 1449 1450 1452 1454 1457
1533 1534 1534 1534 1533 1532 1532 1532 1531 1531 1530 1530 1528 1527 1525 1524 1523 1522 1521 1519 1518 1517 1515 1514 1513 1512 1510 1509 1509 1507 1506 1505 1504 1503 1501 1500 1498 1497 1494 1491 1490 1490 1489 1487 1482 1480 1480 1477 1472 1469 1467 1466 1464 1461 1459 1457 1456 1453 1451 1449 1447 1445 1443 1442 1441 1440 1439 1439 1439 1441 1442 1444 1446 1449
1531 1531 1531 1530 1530 1529 1528 1528 1528 1527 1526 1526 1525 1524 1522 1520 1519 1518 1517 1515 1514 1514 1512 1511 1510 1509 1508 1506 1506 1505 1503 1502 1501 1500 1498 1497 1495 1493 1491 1488 1486 1486 1486 1482 1477 1473 1472 1471 1466 1462 1462 1460 1457 1456 1454 1452 1449 1446 1444 1440 1438 1436 1434 1433 1433 1432 1431 1431 1431 1432 1434 1436 1438 1441
1529 1529 1528 1527 1527 1526 1526 1525 1525 1524 1523 1522 1521 1520 1518 1517 1515 1514 1513 1512 1511 1510 1510 1508 1507 1507 1505 1504 1503 1502 1501 1499 1498 1496 1495 1494 1491 1489 1488 1485 1482 1481 1480 1477 1471 1465 1465 1466 1462 1457 1456 1455 1453 1451 1449 1446 1443 1439 1436 1433 1430 1427 1426 1424 1424 1423 1423 1423 1424 1424 1426 1428 1430 1433
1526 1526 1526 1525 1525 1524 1523 1523 1522 1521 1520 1519 1518 1517 1515 1514 1513 1511 1510 1509 1508 1507 1506 1505 1504 1504 1503 1501 1500 1499 1498 1496 1495 1493 1491 1489 1487 1485 1483 1480 1477 1476 1475 1473 1467 1459 1459 1462 1459 1452 1450 1450 1447 1445 1442 1439 1435 1431 1427 1424 1421 1418 1417 1416 1415 1414 1414 1415 1415 1416 1418 1420 1423 1426
1524 1523 1523 1522 1522 1522 1521 1520 1519 1518 1518 1516 1515 1514 1513 1511 1510 1509 1508 1507 1505 1504 1503 1502 1502 1501 1500 1498 1497 1496 1495 1493 1491 1489 1487 1485 1482 1480 1477 1474 1473 1472 1471 1470 1465 1456 1454 1458 1455 1448 1447 1445 1440 1437 1434 1430 1427 1424 1419 1414 1411 1409 1407 1406 1405 1405 1405 1406 1407 1408 1410 1412 1415 1418
1521 1520 1520 1520 1520 1520 1519 1517 1516 1516 1515 1513 1512 1511 1510 1509 1507 1506 1505 1504 1503 1502 1500 1499 1498 1497 1496 1495 1493 1492 1491 1489 1487 1485 1483 1481 1478 1476 1473 1470 1469 1468 1467 1466 1463 1455 1451 1452 1449 1444 1443 1440 1433 1428 1425 1421 1418 1414 1410 1405 1401 1399 1398 1396 1395 1395 1395 1397 1398 1400 1402 1405 1408 1412
1517 1517 1517 1518 1517 1517 1516 1514 1513 1513 1512 1510 1509 1508 1507 1506 1505 1504 1502 1501 1499 1498 1496 1495 1494 1493 1492 1491 1490 1489 1488 1486 1484 1482 1479 1477 1475 1473 1470 1467 1465 1464 1462 1461 1459 1453 1448 1446 1444 1439 1437 1433 1425 1420 1416 1413 1409 1404 1400 1396 1393 1391 1389 1387 1386 1386 1387 1388 1390 1392 1395 1398 1402 1406
1514 1514 1514 1514 1514 1514 1512 1511 1511 1510 1509 1508 1506 1505 1504 1503 1502 1501 1501 1499 1497 1495 1493 1492 1490 1489 1488 1487 1486 1485 1484 1482 1481 1478 1475 1474 1473 1470 1467 1464 1461 1459 1457 1456 1455 1450 1444 1441 1439 1434 1429 1422 1416 1413 1410 1404 1400 1396 1392 1388 1385 1383 1382 1380 1379 1379 1379 1381 1383 1385 1388 1392 1396 1400
1511 1511 1511 1510 1510 1510 1509 1508 1508 1507 1506 1505 1504 1502 1501 1500 1499 1499 1498 1497 1495 1493 1491 1489 1488 1487 1486 1484 1483 1482 1480 1479 1477 1474 1473 1472 1470 1467 1464 1462 1459 1455 1451 1451 1451 1446 1440 1437 1434 1431 1426 1414 1403 1402 1403 1397 1392 1390 1387 1382 1379 1377 1375 1374 1373 1373 1373 1374 1376 1379 1381 1385 1390 1394
1507 1508 1508 1506 1506 1506 1506 1505 1505 1504 1503 1502 1501 1500 1498 1497 1497 1496 1495 1493 1491 1489 1488 1487 1486 1485 1484 1483 1482 1481 1479 1477 1475 1473 1472 1470 1468 1465 1461 1459 1457 1452 1447 1446 1447 1443 1437 1434 1430 1427 1426 1417 1399 1391 1393 1392 1387 1383 1381 1378 1375 1372 1370 1369 1368 1368 1368 1369 1370 1373 1375 1380 1384 1387
1504 1504 1504 1503 1502 1502 1502 1502 1501 1501 1500 1499 1498 1497 1496 1495 1494 1493 1491 1490 1488 1487 1486 1485 1485 1484 1483 1482 1480 1478 1476 1475 1473 1471 1469 1467 1464 1462 1458 1455 1452 1447 1442 1442 1443 1439 1433 1430 1427 1422 1421 1417 1405 1391 1386 1384 1380 1377 1375 1373 1370 1368 1366 1364 1363 1363 1363 1363 1365 1367 1370 1373 1378 1382
1501 1501 1502 1501 1500 1500 1499 1499 1498 1497 1497 1496 1495 1494 1493 1492 1491 1490 1489 1487 1486 1485 1485 1484 1483 1482 1481 1479 1477 1475 1473 1471 1470 1467 1465 1462 1460 1457 1454 1451 1448 1443 1439 1438 1438 1436 1430 1425 1423 1419 1413 1408 1403 1394 1384 1378 1374 1371 1370 1368 1366 1364 1362 1361 1359 1359 1358 1358 1359 1361 1365 1369 1373 1377
1499 1499 1499 1498 1497 1497 1496 1495 1495 1494 1493 1492 1492 1491 1490 1489 1488 1487 1486 1485 1484 1483 1483 1482 1481 1479 1478 1476 1474 1472 1469 1467 1465 1462 1459 1456 1454 1450 1448 1446 1444 1440 1436 1434 1433 1432 1428 1422 1419 1416 1409 1402 1396 1391 1383 1375 1369 1367 1366 1363 1361 1360 1359 1358 1356 1356 1356 1355 1354 1357 1361 1365 1369 1373
1497 1497 1496 1495 1495 1494 1493 1493 1492 1491 1490 1490 1489 1488 1487 1486 1485 1484 1483 1483 1482 1482 1481 1480 1478 1476 1474 1472 1470 1467 1465 1462 1459 1456 1453 1451 1448 1446 1443 1442 1440 1437 1434 1432 1430 1428 1425 1421 1416 1412 1407 1400 1392 1386 1379 1372 1366 1363 1362 1359 1357 1356 1355 1354 1353 1352 1353 1353 1352 1353 1357 1360 1363 1369
1494 1494 1494 1493 1492 1492 1491 1490 1490 1489 1488 1487 1486 1485 1485 1484 1483 1482 1481 1481 1481 1480 1479 1477 1475 1473 1471 1469 1466 1463 1460 1457 1455 1452 1449 1447 1445 1443 1441 1438 1436 1434 1432 1430 1427 1424 1421 1418 1413 1408 1403 1397 1389 1382 1375 1368 1362 1359 1358 1354 1352 1351 1351 1350 1349 1348 1349 1350 1349 1350 1352 1355 1359 1364
1491 1491 1491 1490 1490 1489 1489 1488 1487 1486 1486 1485 1484 1483 1482 1481 1481 1480 1479 1479 1478 1477 1476 1474 1472 1470 1468 1465 1462 1459 1456 1453 1451 1449 1447 1444 1442 1440 1438 1435 1433 1431 1429 1427 1424 1421 1419 1416 1411 1405 1398 1390 1384 1376 1370 1364 1359 1356 1354 1351 1348 1347 1346 1345 1345 1345 1345 1347 1347 1348 1350 1354 1357 1361
1488 1488 1487 1487 1487 1486 1486 1486 1485 1484 1483 1482 1481 1481 1480 1479 1479 1478 1477 1476 1475 1473 1472 1471 1468 1466 1464 1461 1458 1456 1453 1451 1450 1448 1445 1443 1440 1438 1435 1432 1429 1426 1425 1424 1421 1419 1417 1413 1407 1401 1394 1385 1377 1371 1366 1362 1357 1353 1350 1348 1346 1343 1342 1341 1341 1341 1342 1344 1346 1346 1348 1351 1355 1358
1486 1485 1485 1485 1485 1484 1483 1483 1483 1482 1481 1481 1480 1479 1478 1477 1476 1475 1474 1473 1472 1470 1469 1467 1465 1462 1460 1458 1455 1453 1452 1450 1448 1446 1444 1441 1438 1436 1433 1430 1427 1424 1422 1420 1418 1416 1413 1409 1404 1398 1391 1382 1374 1367 1362 1359 1356 1352 1348 1346 1343 1340 1339 1338 1338 1338 1340 1342 1343 1344 1346 1348 1351 1355
1484 1484 1484 1484 1484 1484 1484 1483 1482 1482 1481 1481 1480 1479 1477 1476 1475 1474 1473 1472 1470 1468 1466 1464 1462 1460 1458 1456 1454 1452 1450 1448 1446 1444 1442 1439 1437 1434 1432 1430 1427 1424 1421 1417 1414 1412 1409 1405 1401 1394 1387 1380 1373 1366 1362 1358 1354 1351 1347 1344 1341 1338 1337 1336 1336 1336 1337 1338 1340 1342 1344 1346 1348 1352
1482 1482 1483 1483 1483 1483 1483 1482 1481 1481 1480 1479 1479 1478 1476 1475 1473 1472 1471 1470 1469 1466 1464 1462 1460 1458 1456 1454 1452 1451 1449 1447 1445 1442 1440 1438 1436 1433 1431 1429 1426 1424 1420 1415 1411 1409 1405 1401 1396 1389 1383 1377 1370 1366 1362 1359 1354 1350 1347 1344 1341 1337 1335 1334 1334 1334 1333 1334 1337 1340 1342 1344 1346 1349
1479 1480 1481 1481 1481 1481 1480 1480 1479 1479 1478 1477 1476 1476 1475 1474 1472 1470 1469 1467 1466 1464 1462 1461 1459 1457 1455 1453 1451 1450 1448 1445 1443 1441 1439 1437 1435 1432 1430 1428 1425 1422 1418 1413 1410 1407 1403 1398 1392 1385 1379 1373 1368 1364 1362 1359 1355 1350 1346 1343 1340 1336 1333 1332 1332 1332 1332 1333 1335 1337 1340 1342 1344 1347
1477 1478 1478 1478 1478 1478 1478 1478 1477 1476 1476 1475 1474 1473 1473 1472 1470 1468 1466 1464 1463 1462 1460 1459 1458 1456 1454 1453 1450 1448 1447 1444 1442 1440 1438 1436 1433 1431 1429 1427 1424 1420 1417 1412 1409 1406 1402 1398 1392 1386 1380 1374 1369 1365 1361 1358 1355 1351 1346 1342 1339 1336 1333 1330 1330 1330 1331 1332 1334 1335 1337 1340 1342 1345
1476 1476 1476 1476 1476 1476 1476 1476 1475 1474 1473 1472 1472 1471 1470 1469 1467 1466 1463 1462 1461 1460 1459 1457 1456 1455 1454 1452 1449 1447 1446 1444 1441 1439 1437 1435 1433 1430 1428 1425 1422 1419 1415 1412 1408 1405 1402 1398 1393 1388 1383 1377 1372 1367 1362 1358 1355 1351 1347 1343 1339 1335 1332 1330 1329 1329 1330 1332 1333 1335 1337 1339 1341 1343
1474 1475 1475 1475 1475 1475 1474 1473 1472 1471 1470 1469 1469 1468 1467 1466 1465 1463 1461 1460 1460 1459 1458 1457 1456 1454 1453 1450 1448 1447 1445 1443 1441 1438 1436 1434 1432 1429 1427 1424 1421 1417 1414 1411 1408 1405 1402 1398 1394 1390 1385 1379 1374 1368 1363 1358 1354 1351 1347 1343 1339 1335 1332 1329 1328 1329 1330 1331 1332 1334 1336 1339 1340 1342
1472 1473 1473 1473 1473 1472 1471 1470 1469 1469 1468 1467 1466 1465 1464 1464 1463 1461 1460 1460 1459 1457 1456 1456 1455 1453 1451 1449 1448 1446 1444 1442 1440 1437 1435 1433 1431 1429 1426 1424 1420 1417 1414 1411 1408 1405 1402 1399 1395 1391 1387 1382 1377 1372 1366 1361 1356 1352 1348 1344 1340 1336 1332 1330 1328 1328 1329 1330 1331 1333 1335 1337 1339 1341
1471 1471 1470 1470 1470 1469 1468 1467 1466 1466 1465 1464 1463 1462 1462 1461 1461 1460 1459 1458 1457 1456 1455 1455 1453 1452 1450 1449 1447 1445 1443 1441 1439 1437 1435 1432 1430 1428 1426 1423 1420 1417 1414 1410 1407 1404 1401 1399 1395 1392 1389 1385 1380 1375 1369 1363 1358 1353 1349 1345 1342 1338 1334 1330 1328 1327 1328 1329 1329 1331 1332 1335 1337 1339
1469 1469 1468 1468 1467 1466 1465 1464 1464 1463 1462 1461 1460 1460 1459 1459 1459 1458 1457 1456 1455 1454 1454 1453 1452 1451 1450 1448 1446 1444 1442 1440 1438 1436 1434 1432 1429 1428 1425 1423 1420 1418 1414 1409 1406 1404 1401 1398 1396 1393 1390 1386 1381 1375 1369 1363 1358 1354 1350 1347 1343 1340 1336 1333 1330 1328 1327 1327 1327 1329 1331 1333 1335 1337
1467 1467 1466 1465 1464 1464 1463 1462 1461 1461 1460 1459 1459 1458 1457 1457 1456 1456 1455 1455 1454 1453 1453 1453 1451 1450 1449 1447 1445 1443 1441 1439 1438 1435 1433 1431 1429 1427 1425 1423 1421 1418 1413 1409 1406 1403 1401 1398 1396 1394 1390 1386 1381 1376 1370 1366 1361 1357 1352 1349 1345 1341 1338 1335 1332 1329 1326 1325 1326 1329 1331 1333 1334 1336
1465 1464 1464 1463 1463 1462 1461 1460 1459 1458 1458 1457 1457 1456 1456 1456 1456 1455 1455 1454 1453 1453 1452 1451 1450 1449 1448 1446 1444 1442 1441 1439 1437 1435 1433 1431 1429 1427 1424 1423 1420 1417 1414 1410 1406 1403 1401 1398 1396 1393 1391 1387 1383 1379 1374 1369 1365 1360 1355 1351 1347 1343 1339 1336 1333 1330 1327 1327 1328 1330 1331 1331 1333 1335
1462 1462 1462 1462 1461 1460 1460 1459 1457 1456 1456 1456 1455 1454 1454 1454 1454 1454 1454 1453 1453 1452 1451 1450 1449 1448 1446 1445 1443 1442 1440 1438 1436 1434 1432 1431 1429 1427 1425 1422 1420 1417 1414 1410 1406 1403 1401 1398 1396 1394 1391 1388 1385 1381 1376 1372 1367 1363 1358 1353 1349 1344 1340 1336 1333 1331 1330 1329 1330 1331 1332 1331 1332 1334
1460 1460 1460 1460 1460 1459 1458 1458 1457 1455 1454 1454 1453 1453 1453 1453 1453 1453 1453 1452 1451 1450 1449 1449 1448 1446 1445 1443 1442 1441 1439 1437 1436 1434 1433 1431 1429 1427 1425 1422 1420 1417 1414 1411 1407 1404 1401 1398 1397 1395 1392 1390 1387 1383 1380 1375 1371 1366 1361 1356 1350 1346 1342 1338 1336 1333 1332 1331 1331 1331 1332 1332 1333 1335
Wind_Speed
7 8 9 9 10 9 10 10 11 11 11 12 12 11 11 12 13 15 16 16 14 12 11 12 12 13 15 17 17 17 18 18 17 17 18 21 22 22 23 22 22 22 22 22 23 23 22 21 19 18 17 18 18 19 19 20 21 22 23 24 25 28 32 36 39 40 39 39 38 38 38 38 38 38
7 8 9 10 11 11 11 11 11 11 12 12 12 12 12 12 13 15 17 19 16 12 12 12 13 14 16 18 19 19 20 21 20 20 21 22 23 23 24 24 24 23 23 23 23 24 24 23 21 20 20 19 20 21 21 21 21 22 23 24 26 27 29 32 36 40 41 41 41 41 40 39 39 39
7 8 9 10 11 10 11 11 12 12 12 13 13 14 14 15 16 16 17 21 21 16 14 15 16 16 18 19 20 21 22 21 21 22 22 22 22 23 23 24 23 22 22 22 22 24 24 24 23 22 22 21 22 22 23 23 23 22 23 24 26 27 28 30 32 36 40 43 44 43 43 42 41 40
10 10 10 11 11 11 10 11 12 12 12 13 13 15 16 17 17 17 17 21 24 22 19 19 19 18 19 20 21 23 23 22 22 23 23 23 23 23 23 22 23 22 22 22 23 24 24 24 24 24 23 23 23 23 24 24 24 24 24 25 26 27 29 30 31 33 37 41 44 45 45 44 43 42
11 11 11 12 12 11 11 11 12 13 13 13 14 15 16 17 16 16 17 20 23 23 22 22 22 21 21 22 22 23 23 24 24 24 25 25 24 24 23 22 22 23 24 23 23 24 24 24 24 24 24 24 24 25 25 24 24 25 25 25 26 27 29 31 32 34 35 38 42 46 47 47 45 44
12 12 13 13 12 13 13 12 12 13 14 14 15 15 16 18 18 18 18 20 22 22 22 23 24 24 23 22 23 24 24 25 25 25 25 24 23 23 23 22 22 23 24 24 24 24 24 24 24 24 24 24 25 25 26 25 25 26 26 27 27 28 29 31 34 35 36 37 39 43 47 49 48 46
12 13 13 13 13 14 14 13 13 14 15 15 16 17 17 18 19 19 19 21 22 23 23 23 23 24 25 25 26 27 27 27 26 24 24 24 23 22 21 22 22 22 23 24 24 24 24 25 25 25 25 25 26 27 27 27 27 27 28 29 29 30 31 32 34 37 38 38 39 41 45 48 50 49
14 14 14 14 13 13 14 13 13 14 14 15 16 17 17 18 18 19 19 20 21 23 24 25 25 26 26 26 27 28 27 26 25 24 24 24 24 23 20 21 21 21 22 24 23 23 23 25 25 26 27 28 29 29 29 29 31 31 31 32 33 33 34 34 35 37 40 41 41 42 43 46 50 51
14 15 15 14 13 13 14 13 13 13 13 15 17 18 18 18 19 19 20 21 21 22 24 26 26 26 26 25 26 26 25 23 23 24 23 23 23 22 19 19 21 20 22 25 25 24 24 24 26 28 29 30 30 30 31 32 33 33 34 35 37 38 38 38 37 37 40 43 43 43 44 45 48 52
15 16 15 14 14 14 13 14 13 13 14 15 17 19 19 20 20 21 21 21 21 22 24 26 25 24 24 23 23 24 23 23 23 22 22 22 21 21 20 20 20 20 21 23 24 26 27 27 29 31 30 30 31 31 32 33 34 36 38 41 43 44 44 43 41 40 40 43 45 45 45 46 48 50
16 16 16 15 15 15 15 15 15 15 16 17 19 20 21 22 22 23 23 21 21 23 25 25 25 25 25 23 24 25 23 22 22 21 22 23 22 23 23 22 22 21 22 23 24 27 29 30 32 32 30 30 31 32 34 35 37 40 44 47 49 49 48 46 44 41 40 42 46 48 47 46 48 49
17 17 16 16 16 16 17 17 17 17 18 20 21 22 22 24 25 25 25 25 24 24 25 25 25 26 28 26 25 26 23 21 22 22 22 24 24 24 23 23 23 23 25 26 26 25 27 29 31 32 32 32 32 35 38 40 41 44 47 50 50 50 50 49 46 43 40 40 44 48 49 47 48 49
18 17 17 17 18 19 19 18 19 20 21 22 24 24 24 26 27 27 27 27 27 27 27 26 24 25 28 25 22 24 24 22 24 24 23 24 25 24 25 25 24 25 27 28 27 25 26 28 30 31 33 33 33 37 41 41 42 43 45 48 50 50 51 51 48 44 42 40 41 46 50 48 48 49
18 17 17 18 20 21 21 21 22 23 24 24 24 25 26 28 28 27 27 26 27 28 28 27 25 25 26 23 21 23 23 22 24 23 21 24 25 25 27 27 25 26 27 28 30 29 26 28 33 35 36 37 36 37 38 37 38 41 46 51 52 51 51 49 45 43 43 43 41 43 48 49 47 49
18 17 17 18 20 21 20 21 23 25 25 25 25 27 28 27 27 26 26 26 27 28 28 27 25 24 24 23 23 24 24 22 22 21 21 24 25 24 27 29 28 27 26 27 32 31 28 32 39 39 38 39 38 36 35 35 39 45 51 55 53 50 49 46 43 41 41 44 43 42 46 48 48 48
18 18 18 20 21 21 20 22 24 25 26 26 26 26 27 26 25 24 24 24 24 24 24 25 24 23 24 23 22 22 23 22 21 20 20 22 23 25 27 29 29 26 24 28 33 34 33 35 38 36 35 35 35 35 35 38 44 50 53 54 53 51 50 49 47 44 42 42 43 43 45 48 48 48
18 20 21 22 23 23 23 23 24 25 26 25 24 25 26 26 24 22 21 21 21 21 21 22 21 21 22 23 22 22 23 22 21 20 21 23 26 26 25 26 27 26 25 28 31 33 32 29 30 33 33 32 34 37 40 44 49 53 54 54 53 52 52 51 49 46 44 42 42 43 46 48 49 49
20 22 23 23 24 24 23 23 24 25 25 24 25 26 26 24 22 21 20 20 20 19 18 19 20 19 20 21 22 22 22 21 22 23 25 28 29 28 27 27 28 27 25 25 29 34 33 27 30 36 36 34 37 42 46 49 52 55 55 54 52 50 49 48 47 46 45 43 42 43 46 48 50 50
22 23 24 24 24 23 22 23 25 26 26 25 26 26 24 22 20 18 18 19 19 19 18 19 21 21 21 21 22 23 24 24 26 26 26 29 31 31 31 29 26 24 24 24 30 38 37 31 33 38 38 40 43 45 49 53 56 56 55 53 50 46 44 45 45 47 46 44 43 43 46 49 50 50
23 23 23 22 22 22 23 24 25 25 25 25 24 23 22 20 19 18 19 20 21 21 21 21 22 22 23 24 25 27 26 25 24 25 27 30 30 28 27 27 25 24 24 24 29 36 37 34 36 39 38 41 46 49 54 60 61 58 55 51 47 43 41 42 43 44 44 44 43 43 46 49 50 50
26 25 22 20 21 23 23 24 25 25 25 23 22 21 20 19 19 18 18 19 20 22 22 22 22 22 22 23 24 25 23 22 23 25 28 27 24 22 23 26 27 26 25 27 29 34 38 39 39 39 38 41 49 56 61 63 61 57 52 47 42 38 36 37 38 39 40 40 42 43 45 48 50 49
29 26 22 20 22 24 23 24 25 26 24 22 20 20 19 19 19 17 15 15 18 20 21 22 22 23 23 22 22 23 23 22 23 24 23 21 19 21 24 26 28 29 29 29 28 33 39 40 37 37 40 47 56 59 60 61 59 54 50 46 40 35 33 33 34 35 36 38 40 42 44 47 48 48
28 25 22 22 24 23 23 24 25 24 22 21 20 19 19 20 19 17 14 13 14 16 17 19 19 20 21 20 21 22 22 22 22 20 18 17 19 23 26 27 30 31 31 31 32 35 38 35 33 37 41 49 59 61 58 59 58 53 49 45 40 35 33 33 32 31 34 37 39 41 44 46 48 49
27 25 25 25 23 20 21 23 23 21 20 20 19 19 19 20 20 18 16 15 17 18 17 17 17 17 17 18 20 20 20 19 17 17 17 18 19 22 25 27 29 31 35 38 39 38 36 33 36 40 40 44 56 62 59 56 55 51 47 43 38 33 31 31 30 29 31 36 39 41 44 46 48 49
28 28 25 21 19 20 22 22 21 19 19 19 19 20 20 20 21 20 18 18 19 19 16 15 17 18 19 21 20 19 17 16 16 16 17 19 21 24 27 30 31 35 40 42 39 35 34 35 37 40 41 43 51 59 58 55 53 50 45 39 35 32 29 29 30 29 29 34 39 42 45 47 48 49
23 23 19 17 19 22 22 22 20 19 19 19 19 19 19 19 19 20 20 20 19 16 14 16 18 19 21 21 19 17 17 17 17 19 22 25 29 31 33 33 34 37 40 40 35 31 32 37 39 41 45 48 50 55 57 54 52 49 42 35 32 31 29 27 29 28 26 29 37 42 45 46 48 48
13 14 15 17 20 21 21 21 20 19 18 18 18 18 18 18 18 19 20 20 16 13 13 17 19 19 19 19 18 18 19 20 23 27 31 33 34 33 33 31 30 33 35 35 31 28 31 37 39 41 47 51 52 55 56 52 49 46 40 35 32 29 26 25 27 28 24 25 32 39 43 45 46 47
11 13 15 18 20 20 20 20 19 18 18 18 18 18 17 17 18 19 18 14 12 12 15 17 19 19 19 18 18 20 24 28 32 34 33 31 29 29 29 28 28 30 30 29 28 28 30 35 38 42 47 50 52 55 53 51 49 43 35 33 32 28 24 21 24 27 26 26 29 34 41 46 47 47
12 14 16 18 20 21 20 19 18 18 18 17 17 17 17 17 18 17 13 10 11 14 15 16 18 18 18 18 21 25 30 33 32 30 27 26 26 26 27 28 28 28 26 25 26 28 29 33 38 43 47 48 50 52 50 48 45 38 32 32 32 30 25 21 23 26 27 29 30 32 40 46 47 47
16 17 18 19 20 20 19 18 17 17 17 17 16 16 16 16 16 14 12 12 14 16 16 17 17 18 20 22 26 30 31 30 27 24 23 24 25 26 26 27 28 27 23 22 24 26 27 32 37 42 45 48 48 46 43 40 36 32 28 27 27 27 24 21 22 24 27 30 31 32 38 43 45 47
16 17 19 20 20 20 18 17 17 17 17 16 15 16 16 15 14 14 15 16 17 18 18 18 19 22 25 27 28 27 25 24 22 21 21 22 24 26 25 25 26 26 23 21 21 23 27 32 36 40 43 45 43 38 34 31 29 27 24 22 22 23 23 21 21 22 26 29 29 32 37 41 44 47
12 14 16 16 16 15 15 14 14 14 13 11 11 11 11 12 14 15 15 15 16 17 18 21 24 26 25 24 23 22 21 21 21 20 21 22 24 24 22 22 24 25 25 23 22 23 26 31 35 39 40 39 38 35 29 23 22 24 24 22 22 22 20 21 21 20 22 27 30 33 36 38 43 47
13 12 11 10 10 10 11 12 11 10 10 10 10 11 11 11 11 12 12 12 12 14 19 24 25 23 21 20 20 20 20 20 20 20 21 22 22 21 20 21 22 24 26 27 25 25 28 32 34 37 38 36 34 30 25 23 24 24 24 25 25 23 18 17 19 17 20 29 34 33 32 35 41 46
14 11 9 10 12 12 12 12 11 11 12 12 11 12 13 11 10 10 10 10 12 16 22 23 20 18 18 18 18 18 18 19 20 20 20 21 20 19 19 20 21 23 26 28 26 25 30 34 36 38 39 39 35 27 23 25 27 26 24 24 25 24 20 16 16 17 21 29 34 32 30 32 37 43
14 11 10 11 13 13 12 12 11 11 11 10 9 9 10 9 9 9 10 11 16 21 21 18 16 16 16 16 17 17 18 19 20 19 19 19 19 19 19 20 21 24 27 28 26 25 29 34 38 41 42 42 40 33 27 26 27 26 27 26 25 24 19 14 15 18 21 27 32 32 30 30 34 40
11 10 10 10 11 11 11 11 11 10 9 9 8 8 8 8 8 9 11 16 21 21 17 14 14 14 14 15 16 17 17 18 19 19 19 19 19 19 19 19 22 26 29 28 25 25 28 32 36 39 40 41 41 37 31 27 25 25 27 27 27 26 19 13 13 15 18 25 29 31 31 29 31 35
9 9 10 10 10 10 10 10 10 9 8 8 8 8 8 8 9 11 17 21 20 16 14 14 13 12 13 15 16 16 17 18 18 18 19 19 19 19 19 20 23 27 29 27 24 24 27 30 32 35 37 39 39 37 33 28 23 23 26 26 28 28 22 14 12 12 18 25 28 30 30 29 30 31
9 9 11 10 10 10 9 8 8 8 8 8 8 8 8 9 9 13 18 18 14 12 12 12 11 12 13 14 15 16 17 17 17 18 18 18 19 19 19 21 24 26 27 25 24 23 25 27 30 32 35 37 38 38 35 30 25 23 25 25 26 27 24 17 12 12 17 22 26 27 27 27 28 28
8 9 10 10 11 10 9 9 9 8 8 8 8 8 8 9 10 13 13 12 11 12 11 11 11 13 13 13 14 15 16 17 18 18 17 18 19 19 19 21 23 24 24 25 24 22 23 25 28 30 33 35 35 34 31 29 26 23 22 22 23 24 23 18 12 12 16 19 23 25 26 27 26 25
8 9 10 9 10 10 9 9 9 9 8 9 10 11 11 10 11 12 11 11 12 12 10 10 11 12 12 13 14 15 15 16 17 17 17 19 19 19 20 21 21 22 25 27 25 22 22 24 26 27 30 32 33 31 29 28 26 24 21 18 19 21 23 19 11 10 15 18 20 21 23 26 27 25
8 9 9 8 8 9 8 8 8 8 8 9 11 12 13 13 13 12 12 12 12 11 9 10 11 11 12 12 13 15 16 16 17 17 18 19 19 19 20 20 20 21 25 27 25 21 21 22 22 23 26 30 32 33 33 31 29 28 26 22 18 17 20 21 16 8 12 19 23 23 22 24 27 26
8 8 8 7 7 8 8 8 9 8 7 8 9 10 12 13 13 12 11 10 10 10 9 9 11 11 11 12 13 14 15 16 17 18 18 18 19 19 19 19 19 22 25 27 26 23 19 18 20 22 24 27 31 33 34 32 30 28 28 25 20 16 17 21 22 16 7 9 19 23 22 22 25 25
8 7 6 6 7 7 8 8 9 9 8 8 11 13 13 10 9 9 9 8 8 9 9 9 10 11 11 12 13 14 15 15 17 18 18 18 19 19 19 19 19 21 24 25 26 24 18 16 19 22 23 25 27 30 33 32 30 28 28 27 24 21 18 18 20 16 8 1 10 15 16 19 23 23
7 7 7 9 9 9 8 8 9 10 10 11 12 13 11 8 8 8 8 8 8 9 9 9 10 10 11 12 13 13 14 16 17 18 18 18 18 18 18 18 19 21 23 25 26 25 20 16 17 20 21 23 24 28 31 32 30 30 30 28 27 27 25 22 21 17 9 4 4 5 7 10 16 19
6 6 8 10 10 9 9 9 9 10 11 11 10 9 8 8 7 7 7 8 9 9 9 9 10 10 11 12 12 14 15 16 17 17 17 17 18 18 18 18 18 20 22 24 26 26 23 19 17 17 18 19 20 24 28 30 30 30 31 29 29 30 30 27 26 23 19 16 13 8 3 4 7 12
Wind_Direction
268 270 272 275 277 277 278 279 280 281 283 285 285 285 283 283 288 293 296 294 293 293 289 289 291 287 288 299 303 300 299 300 298 293 289 290 289 289 287 284 281 278 277 275 273 273 274 274 274 274 276 279 284 288 290 289 286 281 277 273 270 264 259 254 251 250 251 252 252 253 253 253 251 249
268 272 274 278 280 283 284 283 283 283 284 285 284 283 283 282 282 286 291 293 291 289 287 288 292 289 289 294 298 297 297 300 300 295 290 289 287 287 287 286 285 282 279 276 274 272 272 272 273 274 276 277 281 286 290 292 291 288 283 278 274 271 266 261 256 252 250 250 250 251 252 252 251 250
265 268 274 278 279 281 281 280 280 281 282 283 282 283 283 282 281 281 284 288 290 292 291 289 292 291 291 294 295 296 299 301 302 300 297 293 290 288 286 285 285 282 278 276 273 271 270 270 271 274 276 278 280 283 286 290 292 292 290 285 280 274 270 266 261 257 252 249 249 249 250 251 250 250
268 271 275 279 282 282 278 278 279 279 280 281 281 282 281 279 278 277 276 279 287 293 294 292 294 294 293 294 295 297 300 302 304 306 304 300 297 292 289 287 286 283 279 277 275 273 271 270 270 273 275 278 281 283 284 286 289 291 292 291 288 282 275 269 264 260 256 252 249 247 248 249 249 249
274 279 280 281 283 282 280 279 279 281 282 282 281 281 279 275 271 269 268 273 282 290 293 293 295 296 296 295 296 298 299 299 302 305 305 304 301 297 291 287 286 287 285 282 279 277 274 272 271 272 274 276 280 283 283 284 285 288 291 292 292 290 285 278 270 264 259 255 252 248 246 246 247 247
277 281 280 278 278 278 279 279 279 283 284 281 280 279 277 276 274 270 267 272 280 285 289 292 294 297 298 296 296 299 299 297 298 300 303 303 300 297 293 288 287 288 287 285 282 279 276 274 273 272 273 275 279 282 284 285 286 288 291 292 293 292 290 285 279 271 264 257 253 250 247 245 245 245
274 277 277 275 274 273 275 278 280 283 285 285 285 284 282 281 283 281 273 271 278 284 287 289 290 293 294 293 295 298 299 298 297 297 300 301 297 294 291 289 287 285 284 285 283 279 276 276 276 274 272 273 276 279 282 284 287 289 290 292 293 293 293 289 284 278 271 263 255 251 248 245 243 243
270 272 272 270 267 265 268 275 281 283 286 289 290 290 289 287 288 289 283 276 276 281 287 289 289 290 290 290 293 297 297 296 294 294 298 301 298 294 290 289 288 287 288 290 288 281 274 272 273 274 274 275 276 278 281 285 289 290 291 294 295 294 293 291 286 280 274 269 261 253 248 245 242 241
267 267 267 263 260 259 262 270 277 279 283 288 292 294 295 294 293 293 291 289 283 279 283 287 289 289 288 288 292 294 293 291 290 292 295 297 295 294 292 290 290 292 294 296 295 290 282 277 277 278 278 278 278 279 282 287 291 294 295 297 297 295 293 291 288 281 274 270 265 258 250 246 242 240
262 262 262 259 256 256 260 268 273 276 282 290 296 301 303 301 299 295 292 290 285 281 283 286 286 286 287 288 288 287 288 287 287 289 293 294 293 291 289 287 286 287 287 288 289 289 287 287 288 288 284 282 282 284 288 293 296 299 301 301 299 298 295 292 288 283 275 269 266 261 254 247 243 240
257 257 259 258 258 258 262 270 276 280 287 293 298 303 306 303 301 299 294 289 284 281 282 284 285 285 287 286 281 281 285 286 285 289 293 295 294 292 290 287 287 287 285 285 286 287 289 291 293 293 290 288 288 290 295 302 304 304 304 304 303 300 297 293 289 283 275 268 264 262 257 250 244 240
251 252 256 258 260 261 264 273 279 282 287 291 294 299 302 301 299 298 295 292 290 285 282 284 287 288 289 287 280 283 288 287 285 288 290 292 293 294 292 290 292 292 290 290 290 287 288 289 290 290 289 288 288 290 296 303 305 306 306 305 304 301 298 295 290 283 274 266 262 260 258 252 246 241
249 251 255 257 260 263 268 275 280 282 284 284 286 291 294 296 296 296 294 293 293 291 289 289 289 288 291 290 283 286 291 288 289 291 290 291 292 293 293 292 292 293 293 293 291 286 285 286 286 285 284 284 284 287 293 296 298 302 304 303 301 298 295 293 288 281 273 265 259 257 256 254 248 242
249 251 255 259 265 271 275 278 279 280 281 281 282 285 288 289 290 291 291 290 291 293 293 293 292 289 290 290 286 289 293 292 293 295 293 292 294 295 295 293 292 293 293 291 288 285 284 284 284 284 285 285 285 285 287 286 286 293 299 301 299 293 289 287 281 277 272 264 257 253 252 252 248 242
250 252 255 259 266 273 277 279 280 281 282 283 284 286 287 287 288 287 286 286 287 290 291 292 293 290 289 289 289 292 295 294 295 296 294 295 297 296 295 295 294 295 294 291 287 285 284 286 287 286 286 287 286 283 282 281 284 292 297 299 297 290 285 282 275 273 272 264 256 249 247 247 247 242
251 252 258 265 270 274 276 279 282 284 287 289 289 289 290 291 292 290 286 284 284 286 288 289 290 289 289 290 292 294 296 296 297 297 294 295 295 294 293 293 293 294 293 290 287 287 288 291 290 286 284 285 285 284 284 286 290 295 296 295 293 288 283 280 274 270 269 265 257 248 242 242 242 239
252 258 266 272 277 280 281 282 284 286 289 292 293 294 295 295 294 291 286 284 284 283 284 284 285 287 288 290 292 293 294 296 295 295 294 294 293 292 291 290 290 293 292 289 288 289 290 291 289 286 284 285 286 286 286 288 294 298 296 291 287 283 278 276 273 269 266 262 256 248 241 238 238 237
256 265 271 274 278 281 281 283 286 287 289 293 294 295 295 294 293 290 287 289 289 286 284 285 286 288 288 288 289 290 293 294 293 294 294 293 292 292 292 291 292 294 294 292 291 289 291 293 290 286 287 290 289 288 288 291 296 298 296 290 286 282 277 274 272 270 265 259 254 248 241 236 235 234
262 269 273 276 279 280 281 283 286 288 289 290 291 290 290 289 288 286 284 284 284 282 280 282 284 284 284 282 283 286 289 290 291 293 293 293 295 299 299 296 294 294 294 292 288 287 290 293 289 286 289 292 290 289 292 297 299 299 296 292 289 285 281 277 273 270 265 256 249 246 240 235 233 232
265 268 271 275 278 280 284 286 287 288 289 289 289 287 286 287 288 286 285 285 284 280 277 278 279 279 280 281 283 287 289 289 291 294 294 297 301 302 298 295 293 293 292 289 286 286 288 289 287 288 292 292 291 294 299 302 303 301 298 296 294 289 283 278 272 265 260 253 245 241 237 233 231 230
264 265 268 274 280 283 284 285 287 289 288 288 286 283 284 287 289 289 289 291 290 286 283 285 286 286 285 284 284 285 284 285 292 296 299 301 302 298 294 294 296 296 294 293 292 289 289 291 292 294 296 295 296 301 305 306 305 304 302 300 297 291 283 278 272 261 253 247 241 236 233 231 229 228
265 267 270 276 283 284 281 282 285 287 287 285 283 282 286 290 290 290 289 289 289 290 292 297 299 301 300 296 292 289 288 292 299 303 303 302 299 295 294 296 299 298 295 297 298 295 295 298 297 299 303 303 302 304 306 307 306 306 306 305 300 292 284 280 274 260 247 241 237 233 230 228 226 226
266 270 274 281 285 282 277 279 281 282 283 283 282 284 289 290 291 290 285 281 283 288 293 297 298 300 301 299 297 297 298 302 307 308 304 298 295 295 295 296 299 297 294 299 304 301 299 300 301 305 309 307 306 307 307 307 306 305 305 304 298 290 283 278 273 262 248 238 233 230 228 225 223 223
267 273 281 287 286 279 277 279 280 280 281 280 280 285 288 289 289 287 282 282 286 289 291 293 293 295 297 297 296 295 295 296 298 297 294 292 292 294 295 296 296 293 292 299 307 305 301 301 305 308 310 306 305 306 306 305 304 303 303 301 294 285 279 272 269 265 253 240 231 228 226 222 219 219
271 277 284 285 277 274 280 282 281 279 279 278 281 285 286 286 286 284 283 286 290 293 294 294 295 296 297 296 294 292 292 291 290 290 290 292 293 294 295 296 295 293 293 299 306 305 301 303 308 309 309 306 304 305 306 305 304 303 303 300 289 282 279 271 265 266 260 244 233 227 224 220 216 216
273 275 274 267 266 274 281 282 280 279 278 279 283 285 284 283 282 282 284 288 291 294 293 291 293 294 294 294 293 293 295 295 294 295 296 297 297 296 296 297 296 295 296 301 307 307 304 306 309 308 308 309 306 305 307 305 303 303 303 296 286 281 278 270 262 262 259 245 236 229 223 218 215 215
263 258 255 258 269 279 282 281 280 280 280 283 285 283 281 280 280 282 286 288 289 290 290 292 295 294 293 295 295 296 299 300 301 302 303 303 303 302 303 303 300 299 301 304 309 313 309 304 301 301 304 306 304 304 306 303 300 300 298 293 288 281 273 265 259 256 250 241 238 232 221 215 214 214
246 246 254 266 279 285 284 282 280 280 282 284 283 282 281 282 285 288 289 289 288 289 292 294 294 293 294 296 297 300 305 307 308 310 310 309 309 310 312 312 307 305 306 306 310 315 309 299 296 301 304 303 301 303 304 301 298 296 291 287 287 282 271 262 258 254 243 234 237 232 218 212 212 211
252 261 269 278 284 283 280 279 279 280 281 281 281 283 286 289 292 291 286 283 285 289 291 293 293 294 297 299 301 306 311 314 316 317 315 313 314 316 316 313 309 308 310 310 313 315 307 298 301 306 307 306 306 305 303 300 297 294 288 284 285 288 284 272 265 259 240 227 232 229 217 212 212 209
266 275 279 281 281 279 278 279 280 281 282 281 282 287 290 292 293 289 284 284 288 291 294 295 296 298 301 305 309 313 317 321 322 319 315 314 318 319 316 312 311 312 315 317 316 312 306 306 311 313 312 314 313 309 305 301 298 295 291 285 287 294 294 282 274 263 238 223 225 224 217 214 214 210
272 277 279 279 276 275 276 278 279 281 282 283 287 293 294 293 289 285 285 290 293 297 301 303 304 307 311 313 316 319 321 322 319 315 313 315 320 322 318 313 313 315 318 321 320 313 312 317 322 322 321 321 319 315 310 304 300 299 298 291 290 296 295 287 279 263 238 223 219 218 217 215 214 212
265 272 279 281 275 272 276 279 280 282 282 282 285 288 286 286 288 289 292 296 299 302 307 312 314 315 316 316 317 319 319 318 316 315 316 319 324 326 321 314 314 316 316 320 323 320 321 328 332 332 332 330 327 323 316 309 308 309 309 308 307 307 300 291 283 265 238 224 217 216 217 215 213 212
258 264 271 274 271 270 274 275 272 271 275 279 279 275 275 280 283 286 292 297 296 298 309 316 318 317 316 315 317 318 317 316 316 318 320 324 327 327 320 315 315 316 316 320 324 323 326 333 339 341 343 342 337 329 322 324 328 325 321 323 323 319 307 291 284 270 241 225 217 212 214 214 212 212
261 253 252 265 269 265 263 262 260 261 268 270 266 269 277 279 274 278 288 292 294 303 312 316 316 313 313 315 317 318 316 316 319 322 323 325 324 321 318 318 318 318 320 324 326 325 329 336 343 347 350 351 349 342 335 337 340 336 331 331 331 325 316 295 280 268 241 220 207 200 203 209 210 211
260 248 249 262 264 258 256 257 258 261 265 262 255 260 269 270 275 286 292 294 302 311 315 313 309 310 313 314 316 317 316 318 322 323 323 324 323 320 319 319 320 324 327 329 330 330 333 341 347 350 351 353 352 349 344 343 343 340 337 336 335 331 321 296 279 269 240 213 199 196 200 206 209 211
253 243 245 251 251 250 254 257 256 254 255 256 259 263 265 269 277 284 288 299 309 315 314 309 308 311 312 313 316 318 317 319 321 322 324 326 324 323 323 321 324 332 335 333 334 336 337 342 348 348 348 349 349 345 344 346 346 343 341 338 336 334 323 293 278 267 234 211 202 201 203 204 205 208
246 245 250 250 249 250 252 255 255 252 253 257 260 264 269 276 282 287 297 309 317 316 312 312 313 311 310 313 317 318 317 319 321 321 324 326 325 325 326 324 328 337 341 337 337 342 341 341 347 350 348 347 344 341 341 346 348 345 343 339 336 336 330 305 276 246 219 208 203 202 204 205 204 206
238 251 257 256 255 255 252 251 252 251 256 263 266 269 277 284 290 298 307 316 317 308 308 312 309 305 310 316 318 318 319 321 321 321 324 327 327 328 327 326 330 339 342 339 339 344 344 344 351 357 354 348 343 339 340 346 352 350 347 343 341 340 336 322 293 253 227 215 208 206 209 210 208 208
238 251 254 253 256 257 252 250 252 254 261 267 270 275 284 292 298 303 309 310 302 300 307 308 303 307 316 319 319 320 321 321 322 323 325 326 327 327 327 327 331 334 336 338 341 344 345 348 355 0 359 353 348 345 345 350 355 354 348 348 351 352 350 341 313 267 238 220 210 211 214 213 210 213
248 251 251 250 252 252 250 253 258 261 264 267 271 275 282 290 297 301 301 296 294 300 308 306 305 312 318 319 320 323 322 322 323 324 325 325 326 327 327 329 330 328 331 340 346 345 344 350 356 359 359 357 355 356 358 0 3 2 358 357 3 6 4 360 339 278 249 232 219 215 214 211 210 211
252 257 258 255 253 251 252 257 260 261 265 271 277 283 288 292 295 295 291 288 290 300 309 308 309 315 318 320 325 326 324 324 325 324 326 327 326 326 328 330 330 329 334 344 350 345 340 346 353 356 358 358 358 2 6 6 4 6 6 5 10 17 17 17 14 337 266 239 221 212 208 207 207 207
256 260 260 259 258 255 251 252 255 258 265 271 277 284 292 297 298 297 295 293 296 305 312 308 309 317 321 323 327 328 326 326 325 324 327 329 327 327 331 331 330 333 338 345 350 347 340 342 348 352 356 360 3 7 10 7 2 4 8 8 12 23 30 30 29 17 333 229 201 198 197 195 199 205
263 266 265 268 270 265 256 255 257 258 262 272 280 287 290 289 288 289 290 289 293 300 304 303 309 319 324 326 331 332 328 324 324 325 328 330 328 328 330 329 330 334 339 343 350 353 348 341 342 346 352 359 5 10 12 10 6 8 13 15 19 28 36 42 40 30 12 152 176 185 185 180 187 198
266 273 276 277 276 271 266 264 262 264 271 279 286 290 288 277 269 273 278 282 287 292 298 306 314 320 324 328 333 334 329 327 329 329 328 328 329 329 329 329 329 334 341 347 355 0 359 350 344 345 350 357 6 12 13 11 11 15 19 20 24 31 36 42 46 46 46 78 129 162 175 174 181 187
271 276 274 271 269 266 267 268 268 273 281 284 284 281 275 266 266 272 276 281 286 291 300 309 314 317 324 330 334 335 334 333 333 329 327 328 331 330 330 331 331 334 343 351 357 360 2 0 356 351 351 355 5 15 17 14 15 21 24 24 26 32 35 39 44 52 60 65 65 71 106 156 175 183